TimeEST,TemperatureF,Dew PointF,Humidity,Sea Level PressureIn,VisibilityMPH,Wind Direction,Wind SpeedMPH,Gust SpeedMPH,PrecipitationIn,Events,Conditions,WindDirDegrees,DateUTC
12:54 AM,19.9,14.0,78,30.69,10.0,WSW,3.5,-,N/A,,Clear,250,2012-11-18 05:54:00
1:54 AM,19.0,14.0,81,30.71,10.0,Calm,Calm,-,N/A,,Clear,0,2012-11-18 06:54:00
2:54 AM,19.9,15.1,81,30.71,10.0,Calm,Calm,-,N/A,,Clear,0,2012-11-18 07:54:00
3:54 AM,17.1,14.0,88,30.73,10.0,Calm,Calm,-,N/A,,Clear,0,2012-11-18 08:54:00
4:54 AM,19.9,14.0,78,30.74,10.0,West,4.6,-,N/A,,Clear,280,2012-11-18 09:54:00
5:54 AM,18.0,12.9,81,30.74,10.0,Calm,Calm,-,N/A,,Clear,0,2012-11-18 10:54:00
6:54 AM,17.1,12.9,84,30.75,10.0,Calm,Calm,-,N/A,,Clear,0,2012-11-18 11:54:00
7:54 AM,21.0,16.0,81,30.76,8.0,Calm,Calm,-,N/A,,Clear,0,2012-11-18 12:54:00
9:54 AM,30.0,21.0,69,30.76,10.0,North,3.5,-,N/A,,Clear,350,2012-11-18 14:54:00
10:54 AM,32.0,19.9,61,30.74,10.0,Calm,Calm,-,N/A,,Clear,0,2012-11-18 15:54:00
11:54 AM,34.0,19.9,56,30.73,10.0,Calm,Calm,-,N/A,,Clear,0,2012-11-18 16:54:00
12:54 PM,36.0,19.0,50,30.71,10.0,Calm,Calm,-,N/A,,Clear,0,2012-11-18 17:54:00
1:54 PM,36.0,19.9,52,30.71,10.0,SSE,4.6,-,N/A,,Clear,150,2012-11-18 18:54:00
2:54 PM,36.0,19.9,52,30.70,10.0,SSE,3.5,-,N/A,,Clear,160,2012-11-18 19:54:00
3:54 PM,32.0,19.9,61,30.70,10.0,South,3.5,-,N/A,,Clear,180,2012-11-18 20:54:00
4:54 PM,32.0,19.9,61,30.70,10.0,Calm,Calm,-,N/A,,Clear,0,2012-11-18 21:54:00
5:54 PM,30.9,19.9,64,30.69,10.0,Calm,Calm,-,N/A,,Clear,0,2012-11-18 22:54:00
6:54 PM,28.9,19.9,69,30.69,10.0,Calm,Calm,-,N/A,,Clear,0,2012-11-18 23:54:00
7:54 PM,28.0,21.0,75,30.68,10.0,Calm,Calm,-,N/A,,Clear,0,2012-11-19 00:54:00
8:54 PM,28.0,21.0,75,30.67,10.0,Calm,Calm,-,N/A,,Clear,0,2012-11-19 01:54:00
9:54 PM,25.0,21.0,85,30.66,10.0,Calm,Calm,-,N/A,,Clear,0,2012-11-19 02:54:00
10:54 PM,24.1,19.9,84,30.66,10.0,Calm,Calm,-,N/A,,Clear,0,2012-11-19 03:54:00
11:54 PM,24.1,19.9,84,30.64,10.0,Calm,Calm,-,N/A,,Clear,0,2012-11-19 04:54:00